Regional Weather Roundup
Issued by NWS Newport/Morehead, NC

Current Version | Previous Version | Graphics & Text | Print | Product List | Glossary On
Versions: 1 2 3 4 5 6 7 8 9 10 11 12 13 14 15 16 17 18 19 20 21 22 23 24 25 26 27 28 29 30 31 32 33 34 35 36 37 38 39 40 41 42 43 44 45 46 47 48 49 50
000 ASUS42 KMHX 071312 RWRMHX WEATHER ROUNDUP FOR EASTERN NORTH CAROLINA NATIONAL WEATHER SERVICE NEWPORT/MOREHEAD CITY NC 800 AM EST WED DEC 07 2016 NOTE: "FAIR" INDICATES FEW OR NO CLOUDS BELOW 12,000 FEET WITH NO SIGNIFICANT WEATHER AND/OR OBSTRUCTIONS TO VISIBILITY NCZ015>017-031-032-045>047-102-103-071400- NORTH COAST CITY SKY/WX TMP DP RH WIND PRES REMARKS EDENTON CLOUDY 46 44 90 NW12 30.01R ELIZABETH CITY CLOUDY 46 44 93 NW14G22 29.98R KITTY HAWK CLOUDY 47 47 100 NW7G17 29.94R MANTEO CLOUDY 47 46 96 N10G17 29.96R $$ NCZ045>047-081-094-103-104-071400- CENTRAL COAST CITY SKY/WX TMP DP RH WIND PRES REMARKS FRISCO CLOUDY 48 45 89 NW12G23 29.96R $$ NCZ095-097-098-100-101-071400- SOUTHERN COAST CITY SKY/WX TMP DP RH WIND PRES REMARKS BEAUFORT CLOUDY 49 45 86 N17 29.99R CEDAR ISLAND NOT AVBL JACKSONVILLE NOT AVBL PINEY ISLAND CLOUDY N/A N/A N/A NW13 29.99R WILMINGTON CLOUDY 44 43 96 NW7 30.03R $$ NCZ011>013-027>030-043-044-078>080-089-090>093-098-071400- COASTAL PLAIN CITY SKY/WX TMP DP RH WIND PRES REMARKS AHOSKIE CLOUDY 43 42 95 CALM 30.02R CLINTON MOCLDY 42 42 100 CALM 30.04R FOG ELIZABETHTOWN N/A 41 41 100 CALM 30.04R FOG GOLDSBORO CLEAR 44 44 99 W5 30.01R GREENVILLE CLEAR 45 43 93 N3 30.03R HAVELOCK CLOUDY 47 43 86 NW12 30.01R KENANSVILLE MOCLDY 45 43 93 CALM 30.03R KINSTON CLEAR 45 43 93 NW3 30.03R NEW BERN CLOUDY 46 42 86 NW10 30.02R RICHLANDS CLOUDY 45 43 93 VRB5 30.03R ROCKY MOUNT CLEAR 42 42 100 CALM 30.03R WASHINGTON CLOUDY 45 43 91 NW6 30.01R WHITEVILLE MOCLDY 44 42 94 CALM 30.03R FOG $$ AMZ130-135-150-152-154-156-158-170-250-252-270-ANZ085-086-088-633-658-670-071400- MARINE OBSERVATIONS STATION/POSITION TIME TEMP WIND PRES WAVE SWELL AIR SEA DIR/SP/G HT/PER HT/PER (UTC) (F) (DEG/KT/KT) (MB) (FT/S) (FT/S) CHESAPEAKE LIGHT NOT AVBL 64 E VA BEACH 1150 53 59 340/ 25/ 31 1010.6 10/ 6 3/11 DUCK 1236 47 54 320/ 16/ 19 1013.5 2 E DUCK NOT AVBL OREGON INLET 1236 48 56 310/ 13/ 19 1013.9 13E OREGON INLT NOT AVBL HATTERAS CG 1236 49 60 320/ 20/ 24 1013.7 DIAMOND BUOY 1150 54 74 330/ 21/ 27 1012.6 7/ 5 2/11 CAPE LOOKOUT 1200 47 320/ 13/ 16 1014.5 BEAUFORT LAB 1236 47 55 330/ 7/ 13 1014.5 30 SE NEW RVR IN 1208 48 70 340/ 17/ 23 1015.1 30 SE NEW RVR IN NOT AVBL 27 SE WRIGHTSVLE 1208 52 67 320/ 16/ 25 1015.2 5 SE WRIGHTSVLE 1208 44 61 320/ 16/ 23 1015.8 225 S CAPE HAT 1150 72 74 300/ 16/ 17 1013.1 10/ 9 7/ 9 41 SE CHARLESTON 1150 58 74 350/ 8/ 12 1015.6 3/ 8 3/ 8 $$

USA.gov is the U.S. government's official web portal to all federal, state and local government web resources and services.